GW6514 Weather Reports


time (UTC)temp
C
wind
direction
speed
KPH
gust
KPH
rain 1hr
cm
rain 24hr
cm
rain mn
cm
humidity
%
barometer
mb
20260506140303 4 131 0.0 0.0 0.00 0.00 0.00 98 1024.8
20260506135800 3 132 1.6 1.6 0.00 0.00 0.00 98 1024.7
20260506135256 3 134 0.0 1.6 0.00 0.00 0.00 98 1024.7
20260506134754 3 140 0.0 1.6 0.00 0.00 0.00 98 1024.7
20260506134250 3 134 0.0 0.0 0.00 0.00 0.00 98 1024.5
20260506133747 2 134 0.0 0.0 0.00 0.00 0.00 98 1024.6
20260506133244 2 132 0.0 0.0 0.00 0.00 0.00 97 1024.3
20260506132740 2 134 0.0 0.0 0.00 0.00 0.00 97 1024.1
20260506132238 2 139 0.0 1.6 0.00 0.00 0.00 97 1024.1
20260506131736 2 141 0.0 1.6 0.00 0.00 0.00 97 1024.3
20260506131231 2 132 0.0 1.6 0.00 0.00 0.00 97 1024.2
20260506130728 2 132 0.0 0.0 0.00 0.00 0.00 97 1024.1
20260506130225 2 132 0.0 0.0 0.00 0.00 0.00 97 1023.8
20260506125724 2 133 0.0 0.0 0.00 0.00 0.00 97 1024.0
20260506125221 2 128 0.0 0.0 0.00 0.00 0.00 97 1023.8
20260506124719 2 131 0.0 0.0 0.00 0.00 0.00 97 1023.8
20260506124217 2 128 0.0 0.0 0.00 0.00 0.00 97 1024.0
20260506123714 2 126 0.0 0.0 0.00 0.00 0.00 97 1023.7
20260506123213 2 130 0.0 0.0 0.00 0.00 0.00 97 1024.0
20260506122709 2 130 0.0 0.0 0.00 0.00 0.00 97 1023.7
20260506122206 2 130 0.0 0.0 0.00 0.00 0.00 97 1023.5
20260506121704 2 134 0.0 0.0 0.00 0.00 0.00 97 1023.6
20260506121200 2 132 0.0 0.0 0.00 0.00 0.00 97 1023.4
20260506120658 3 137 0.0 0.0 0.00 0.00 0.00 97 1023.2
20260506120155 3 137 0.0 0.0 0.00 0.00 0.00 97 1023.2
20260506115654 3 136 0.0 0.0 0.00 0.00 0.00 97 1023.1
20260506115152 3 139 0.0 0.0 0.00 0.00 0.00 97 1023.2
20260506114648 3 113 0.0 0.0 0.00 0.00 0.00 97 1023.1
20260506114146 2 137 0.0 0.0 0.00 0.00 0.00 97 1023.1
20260506113645 2 138 0.0 0.0 0.00 0.00 0.00 97 1023.2
20260506113142 2 137 0.0 0.0 0.00 0.00 0.00 96 1023.1
20260506112637 2 136 0.0 0.0 0.00 0.00 0.00 96 1023.1
20260506112136 2 136 0.0 0.0 0.00 0.00 0.00 96 1023.0
20260506111633 2 137 0.0 0.0 0.00 0.00 0.00 96 1022.9
20260506111131 3 131 0.0 0.0 0.00 0.00 0.00 96 1023.0
20260506110628 3 136 0.0 0.0 0.00 0.00 0.00 96 1023.0
20260506110125 2 133 0.0 0.0 0.00 0.00 0.00 96 1022.7
20260506105621 2 134 0.0 0.0 0.00 0.00 0.00 95 1022.9
20260506105118 3 129 0.0 0.0 0.00 0.00 0.00 95 1022.6
20260506104617 3 136 0.0 0.0 0.00 0.00 0.00 95 1022.5
20260506104114 3 136 0.0 0.0 0.00 0.00 0.00 95 1022.4
20260506103611 3 137 0.0 0.0 0.00 0.00 0.00 95 1022.5
20260506103108 3 136 0.0 0.0 0.00 0.00 0.00 94 1022.3
20260506102606 3 149 1.6 1.6 0.00 0.00 0.00 94 1022.5
20260506102103 3 137 0.0 1.6 0.00 0.00 0.00 95 1022.4
20260506101600 3 125 0.0 1.6 0.00 0.00 0.00 94 1022.1
20260506101057 3 140 0.0 1.6 0.00 0.00 0.00 93 1022.4
20260506100555 3 143 0.0 1.6 0.00 0.00 0.00 95 1022.1
20260506100053 3 141 0.0 1.6 0.00 0.00 0.00 94 1022.3
20260506095551 3 142 1.6 3.2 0.00 0.00 0.00 95 1022.1
20260506095047 3 139 0.0 1.6 0.00 0.00 0.00 94 1022.0
20260506094545 3 136 1.6 1.6 0.00 0.00 0.00 94 1022.0
20260506094043 3 59 3.2 3.2 0.00 0.00 0.00 92 1022.1
20260506093541 3 140 0.0 1.6 0.00 0.00 0.00 93 1022.0
20260506093038 3 141 0.0 1.6 0.00 0.00 0.00 92 1022.0
20260506092536 3 135 0.0 0.0 0.00 0.00 0.00 92 1021.9
20260506092032 3 136 0.0 0.0 0.00 0.00 0.00 93 1021.6
20260506091531 3 138 0.0 1.6 0.00 0.00 0.00 93 1021.6
20260506091028 3 131 0.0 0.0 0.00 0.00 0.00 93 1021.8
20260506090526 3 138 0.0 1.6 0.00 0.00 0.00 93 1021.9
20260506090021 3 133 0.0 0.0 0.00 0.00 0.00 93 1021.6
20260506085519 3 140 0.0 1.6 0.00 0.00 0.00 92 1021.8
20260506085015 4 127 0.0 3.2 0.00 0.00 0.00 91 1021.8
20260506084512 4 144 0.0 3.2 0.00 0.00 0.00 92 1021.8
20260506084008 3 90 0.0 1.6 0.00 0.00 0.00 92 1021.6
20260506083506 3 130 0.0 0.0 0.00 0.00 0.00 92 1021.5
20260506083003 4 143 0.0 0.0 0.00 0.00 0.00 91 1021.6
20260506082459 4 107 1.6 1.6 0.00 0.00 0.00 89 1021.5
20260506081955 4 116 0.0 4.8 0.00 0.00 0.00 89 1021.4
20260506081453 4 149 1.6 3.2 0.00 0.00 0.00 91 1021.5
20260506070727 5 139 0.0 0.0 0.00 0.03 0.03 89 1020.8
20260506070224 5 139 0.0 0.0 0.00 0.03 0.03 89 1020.8
20260506062200 5 139 0.0 1.6 0.00 0.03 0.03 89 1020.5
20260506061656 5 118 3.2 3.2 0.00 0.03 0.03 89 1020.5
20260506061154 5 132 0.0 1.6 0.00 0.03 0.03 89 1020.3
20260506060652 5 143 1.6 1.6 0.00 0.03 0.03 88 1020.4
20260506060149 5 149 1.6 3.2 0.00 0.03 0.03 88 1020.4
20260506051121 6 106 1.6 1.6 0.00 0.03 0.03 87 1019.8
20260506050619 6 139 0.0 1.6 0.00 0.03 0.03 85 1019.8
20260506050116 6 128 0.0 0.0 0.00 0.03 0.03 85 1019.8
20260506045109 6 113 1.6 1.6 0.00 0.03 0.03 85 1019.7
20260506044607 6 136 0.0 1.6 0.00 0.03 0.03 87 1019.8
20260506044104 6 139 0.0 3.2 0.00 0.03 0.03 86 1019.6
20260506043601 7 134 0.0 0.0 0.00 0.03 0.03 86 1019.2
20260506043059 7 132 1.6 1.6 0.00 0.03 0.03 85 1019.2
20260506042558 7 132 0.0 1.6 0.00 0.03 0.03 86 1019.1
20260506042055 7 132 0.0 0.0 0.00 0.03 0.03 86 1019.2
20260506041554 7 132 0.0 0.0 0.00 0.03 0.03 86 1019.3
20260506041050 7 128 0.0 0.0 0.00 0.03 0.03 86 1019.3
20260506040548 7 130 0.0 0.0 0.00 0.03 0.03 85 1019.2
20260506040044 8 127 0.0 1.6 0.00 0.03 0.03 83 1019.2
20260506035541 8 127 1.6 3.2 0.00 0.03 0.03 82 1019.0
20260506035038 8 132 0.0 0.0 0.00 0.03 0.03 81 1019.0
20260506034535 8 132 0.0 3.2 0.00 0.03 0.03 81 1018.6
20260506034032 8 127 3.2 4.8 0.00 0.03 0.03 79 1018.6
20260506033530 8 129 0.0 3.2 0.00 0.03 0.03 74 1018.3
20260506033026 9 126 0.0 0.0 0.00 0.03 0.03 77 1018.5
20260506032524 10 118 0.0 1.6 0.00 0.03 0.03 70 1018.2
20260506032020 10 124 0.0 0.0 0.00 0.03 0.03 72 1018.5
20260506031518 10 108 1.6 1.6 0.00 0.03 0.03 71 1018.3
20260506031015 10 85 0.0 0.0 0.00 0.03 0.03 72 1018.0
20260506030513 11 132 0.0 0.0 0.00 0.03 0.03 70 1018.1
20260506030010 11 131 0.0 1.6 0.00 0.03 0.03 66 1018.0
20260506025507 11 276 3.2 9.7 0.00 0.03 0.03 64 1018.1
20260506025003 11 10 6.4 6.4 0.00 0.03 0.03 64 1017.9
20260506024500 11 124 1.6 6.4 0.00 0.03 0.03 66 1017.7
20260506023955 11 168 3.2 6.4 0.00 0.03 0.03 65 1018.0
20260506023453 11 122 6.4 14.5 0.00 0.03 0.03 65 1018.0
20260506022949 12 335 6.4 11.3 0.00 0.03 0.03 65 1017.7
20260506022447 12 73 4.8 11.3 0.00 0.03 0.03 65 1017.7
20260506021945 12 267 4.8 9.7 0.00 0.03 0.03 64 1017.5
20260506021442 13 296 9.7 14.5 0.00 0.03 0.03 61 1017.6
20260506020939 13 330 6.4 9.7 0.00 0.03 0.03 61 1017.6
20260506020437 13 83 6.4 11.3 0.00 0.03 0.03 60 1017.5
20260506015934 13 277 9.7 11.3 0.00 0.03 0.03 59 1017.4
20260506015431 13 285 8.0 12.9 0.00 0.03 0.03 58 1017.5
20260506014928 13 311 6.4 12.9 0.00 0.03 0.03 57 1017.2
20260506014425 13 93 6.4 12.9 0.00 0.03 0.03 57 1017.2
20260506013921 14 313 11.3 17.7 0.00 0.03 0.03 56 1017.2
20260506013420 14 302 9.7 12.9 0.00 0.03 0.03 54 1017.4
20260506012915 14 305 9.7 11.3 0.00 0.03 0.03 53 1017.5
20260506012412 14 304 6.4 9.7 0.00 0.03 0.03 55 1017.2
20260506011909 15 325 9.7 17.7 0.00 0.03 0.03 55 1017.5
20260506011406 15 301 8.0 11.3 0.00 0.03 0.03 49 1017.2
20260506010903 15 297 11.3 14.5 0.00 0.03 0.03 50 1017.2
20260506010402 15 14 12.9 17.7 0.00 0.03 0.03 48 1017.2
20260506005858 15 280 6.4 14.5 0.00 0.03 0.03 49 1017.2
20260506005355 16 245 6.4 9.7 0.00 0.03 0.03 46 1017.2
20260506004850 15 171 1.6 3.2 0.00 0.03 0.03 48 1017.1
20260506004349 16 143 1.6 3.2 0.00 0.03 0.03 51 1017.1
20260506003845 15 142 1.6 3.2 0.00 0.03 0.03 50 1017.2
20260506003341 15 130 1.6 3.2 0.00 0.03 0.03 50 1017.4
20260506002838 15 113 1.6 1.6 0.00 0.03 0.03 51 1017.0
20260506002334 16 134 4.8 4.8 0.00 0.03 0.03 46 1017.1
20260506001829 15 136 1.6 1.6 0.00 0.03 0.03 54 1017.0
20260506001327 13 125 0.0 1.6 0.00 0.03 0.03 61 1017.0
20260506000824 13 113 0.0 6.4 0.00 0.03 0.03 62 1017.0
20260506000323 13 140 0.0 4.8 0.00 0.03 0.03 59 1017.0
20260505235818 14 143 1.6 3.2 0.00 0.03 0.03 51 1016.9
20260505235316 14 109 0.0 0.0 0.00 0.03 0.03 49 1016.9
20260505234813 14 119 0.0 1.6 0.00 0.03 0.03 49 1016.8
20260505234310 14 117 0.0 0.0 0.00 0.03 0.03 50 1017.1
20260505233807 14 113 1.6 3.2 0.00 0.03 0.03 49 1016.9
20260505233305 14 119 0.0 3.2 0.00 0.03 0.03 51 1017.1
20260505232802 15 352 4.8 4.8 0.00 0.03 0.03 49 1017.0
20260505232259 14 128 0.0 1.6 0.00 0.03 0.03 50 1016.8
20260505231755 14 69 1.6 1.6 0.00 0.03 0.03 48 1017.0
20260505231254 15 51 6.4 6.4 0.00 0.03 0.03 47 1016.8
20260505230752 15 105 0.0 6.4 0.00 0.03 0.03 47 1016.9
20260505230249 14 115 1.6 4.8 0.00 0.03 0.03 50 1017.0
20260505225745 15 86 3.2 3.2 0.00 0.03 0.03 47 1016.9
20260505225243 15 47 4.8 11.3 0.00 0.03 0.03 45 1016.9
20260505224737 14 129 1.6 4.8 0.00 0.03 0.03 47 1017.1
20260505224235 14 70 3.2 11.3 0.00 0.03 0.03 47 1017.1
20260505223733 14 98 3.2 4.8 0.00 0.03 0.03 50 1017.1
20260505223229 14 85 1.6 9.7 0.00 0.03 0.03 47 1017.1
20260505222725 14 81 6.4 9.7 0.00 0.03 0.03 47 1017.4
20260505222221 14 47 3.2 6.4 0.00 0.03 0.03 50 1017.1
20260505221719 14 102 1.6 11.3 0.00 0.03 0.03 53 1017.2
20260505221215 13 98 6.4 9.7 0.00 0.03 0.03 51 1017.2
20260505220712 13 69 3.2 20.9 0.00 0.03 0.03 52 1017.2
20260505220210 13 123 3.2 6.4 0.00 0.03 0.03 55 1017.5
20260505215708 13 134 1.6 6.4 0.00 0.03 0.03 56 1017.4
20260505215205 13 49 8.0 12.9 0.00 0.03 0.03 55 1017.2
20260505214703 13 82 3.2 9.7 0.00 0.03 0.03 54 1017.4
20260505214200 13 320 6.4 9.7 0.00 0.03 0.03 56 1017.1
20260505213657 12 119 0.0 3.2 0.00 0.03 0.03 60 1017.5
20260505213154 12 106 1.6 6.4 0.00 0.03 0.03 60 1017.6
20260505212650 12 21 3.2 9.7 0.00 0.03 0.03 59 1017.5
20260505212148 12 352 8.0 9.7 0.00 0.03 0.03 59 1017.6
20260505211644 12 77 4.8 9.7 0.00 0.03 0.03 58 1017.5
20260505211142 12 42 6.4 11.3 0.00 0.03 0.03 59 1017.6
20260505210638 12 102 3.2 9.7 0.00 0.03 0.03 58 1017.4
20260505210135 12 105 1.6 6.4 0.00 0.03 0.03 58 1017.7
20260505205632 12 59 4.8 12.9 0.00 0.03 0.03 60 1017.4
20260505205131 13 71 4.8 16.1 0.00 0.03 0.03 60 1017.5
20260505204627 12 128 0.0 1.6 0.00 0.03 0.03 63 1017.4
20260505204125 12 52 1.6 6.4 0.00 0.03 0.03 62 1017.5
20260505203621 12 86 4.8 11.3 0.00 0.03 0.03 59 1017.2
20260505203119 12 78 6.4 9.7 0.00 0.03 0.03 56 1017.5
20260505202614 12 159 9.7 12.9 0.00 0.03 0.03 62 1017.5
20260505202110 13 50 3.2 11.3 0.00 0.03 0.03 61 1017.4
20260505201607 12 96 6.4 6.4 0.00 0.03 0.03 60 1017.5
20260505201105 12 38 3.2 9.7 0.00 0.03 0.03 61 1017.4
20260505200603 11 78 4.8 6.4 0.00 0.03 0.03 67 1017.4
20260505200059 12 114 4.8 9.7 0.00 0.03 0.03 66 1017.6
20260505195555 11 113 0.0 9.7 0.00 0.03 0.03 67 1017.2
20260505195053 12 54 6.4 14.5 0.00 0.03 0.03 67 1017.5
20260505194550 11 131 3.2 4.8 0.00 0.03 0.03 68 1017.9
20260505194045 12 142 3.2 4.8 0.00 0.03 0.03 70 1017.5
20260505193543 11 107 0.0 1.6 0.00 0.03 0.03 76 1017.7
20260505193040 10 119 0.0 0.0 0.00 0.03 0.03 81 1017.6
20260505192539 10 109 0.0 4.8 0.00 0.03 0.03 81 1017.6
20260505192036 10 84 1.6 3.2 0.00 0.03 0.03 80 1017.6
20260505191534 8 114 0.0 3.2 0.00 0.03 0.03 82 1017.6
20260505191031 9 122 1.6 4.8 0.00 0.03 0.03 79 1017.6
20260505190526 9 89 1.6 6.4 0.00 0.03 0.03 80 1017.6
20260505190022 9 121 1.6 3.2 0.00 0.03 0.03 80 1017.6
20260505185519 9 94 3.2 6.4 0.00 0.03 0.03 79 1017.7
20260505185016 9 111 3.2 6.4 0.00 0.03 0.03 80 1017.5
20260505184513 8 99 1.6 4.8 0.00 0.03 0.03 84 1017.5
20260505184009 8 105 1.6 3.2 0.00 0.03 0.03 82 1017.5
20260505183506 8 118 0.0 0.0 0.00 0.03 0.03 84 1017.1
20260505183003 8 123 0.0 3.2 0.00 0.03 0.03 84 1017.5
20260505182500 7 111 1.6 1.6 0.00 0.03 0.03 89 1017.4
20260505181956 7 109 1.6 3.2 0.00 0.03 0.03 87 1017.4
20260505181453 7 113 3.2 3.2 0.00 0.03 0.03 86 1017.2
20260505180950 7 107 1.6 4.8 0.00 0.03 0.03 87 1017.2
20260505180446 7 111 0.0 1.6 0.00 0.03 0.03 86 1017.1
20260505175943 7 114 0.0 0.0 0.00 0.03 0.03 90 1017.4
20260505175439 7 90 0.0 1.6 0.00 0.03 0.03 89 1017.2
20260505174936 7 92 1.6 3.2 0.00 0.03 0.03 90 1017.1
20260505174433 6 126 0.0 3.2 0.00 0.03 0.03 91 1017.0
20260505173929 6 93 1.6 6.4 0.00 0.03 0.03 89 1016.8
20260505173426 6 60 1.6 1.6 0.00 0.03 0.03 89 1017.0
20260505172923 6 104 0.0 3.2 0.00 0.03 0.03 90 1016.8
20260505172421 6 108 0.0 1.6 0.00 0.03 0.03 90 1017.0
20260505171920 6 100 1.6 6.4 0.00 0.03 0.03 91 1016.8
20260505171418 6 89 1.6 1.6 0.00 0.03 0.03 91 1016.8
20260505170914 6 75 3.2 4.8 0.00 0.03 0.03 91 1016.6
20260505170411 6 106 1.6 3.2 0.00 0.03 0.03 92 1016.6
20260505165906 6 93 0.0 4.8 0.00 0.03 0.03 92 1016.9
20260505165402 6 113 0.0 9.7 0.00 0.03 0.03 93 1016.6
20260505164858 6 326 6.4 6.4 0.00 0.03 0.03 92 1016.6
20260505164355 6 116 1.6 3.2 0.00 0.03 0.03 93 1016.5
20260505163853 6 7 3.2 4.8 0.00 0.03 0.03 93 1016.4
20260505163352 6 125 0.0 3.2 0.00 0.03 0.03 94 1016.6
20260505162850 5 186 1.6 3.2 0.00 0.03 0.03 95 1016.5
20260505162345 5 115 1.6 3.2 0.00 0.03 0.03 96 1016.3
20260505161843 5 80 1.6 3.2 0.00 0.03 0.03 96 1016.4
20260505161340 5 105 1.6 1.6 0.00 0.03 0.03 97 1016.0
20260505160837 5 100 1.6 1.6 0.00 0.03 0.03 98 1016.0
20260505160335 5 100 0.0 1.6 0.00 0.03 0.03 98 1016.3
20260505153314 3 108 0.0 1.6 0.00 0.03 0.03 99 1016.0
20260505152811 3 112 0.0 1.6 0.00 0.03 0.03 99 1015.9
20260505152307 3 110 0.0 1.6 0.00 0.03 0.03 99 1015.8
20260505151802 3 107 0.0 1.6 0.00 0.03 0.03 99 1015.8
20260505151259 3 113 0.0 0.0 0.00 0.03 0.03 99 1015.7
20260505150756 3 119 0.0 0.0 0.00 0.03 0.03 99 1015.7
20260505150253 3 117 0.0 1.6 0.00 0.03 0.03 99 1015.4